Back to catalog

FENGYUN 1C DEB

AlivePO
NORAD 29855·DEBRIS·🇨🇳 China

Launched May 10, 1999 from Taiyuan Satellite Launch Center

Loading…

Next Passes (next 24 hours)

TLE

FreshSource: Space-Track

Epoch: Sep 14, 2026, 06:19 UTC

1 29855U 99025EZ  26257.26335212  .00001980  00000-0  11196-2 0  9998
2 29855  98.1816 176.3055 0180751 343.4778 168.1437 14.03270946995749

Track FENGYUN 1C DEB in real time with AllMySat

Download on the App Store